アトラス彗星

C/2020 Y2 ( ATLAS )

English version
Home page
Updated on May 29, 2022

---------------------------------------------------------------------

・ プロフィール

発見日 2020年12月28日
発見光度 18.3等
発見者 Asteroid Terrestrial-Impact Last Alert System (ATLAS) search program

・ 写真集

・ 軌道要素

Epoch 2022 Jan. 21.0 TT = JDT 2459600.5
T 2022 June 17.67381 TT                                 Rudenko
q   3.1325043            (2000.0)            P               Q
z  +0.0008640      Peri.  266.09940     -0.14810818     +0.88682465
 +/-0.0000011      Node    26.51140     +0.52175785     +0.44606810
e   0.9972935      Incl.  101.29641     -0.84013851     +0.12068671
From 541 observations 2020 Mar. 25-2022 Jan. 18, mean residual 0".4.

・ 星図

・ 光度変化

        m1 = 7.0 + 5 logΔ + 10.0 log r(t + 100)

---------------------------------------------------------------------

軌道要素はM.P.E.C. 2022-C56に掲載されたものです。
星図はステラナビゲータ Ver.10 (アストロアーツ) で作成したものです。
光度グラフはComet for Windowsで作成したものです。

---------------------------------------------------------------------

Copyright(C) Seiichi Yoshida (comet@aerith.net). All rights reserved.